Year,Month,Day,Hour,Minute,Value (Times are PST for windgust in km/hr)
2015,08,30,00,02,1.60
2015,08,30,00,05,3.20
2015,08,30,00,06,1.60
2015,08,30,00,07,1.60
2015,08,30,00,08,1.60
2015,08,30,00,09,1.60
2015,08,30,00,10,1.60
2015,08,30,00,11,1.60
2015,08,30,00,12,1.60
2015,08,30,00,13,1.60
2015,08,30,00,14,3.20
2015,08,30,00,15,3.20
2015,08,30,00,16,1.60
2015,08,30,00,20,1.60
2015,08,30,00,21,1.60
2015,08,30,00,22,3.20
2015,08,30,00,23,1.60
2015,08,30,00,25,6.40
2015,08,30,00,26,9.60
2015,08,30,00,27,1.60
2015,08,30,00,28,1.60
2015,08,30,00,29,4.80
2015,08,30,00,30,4.80
2015,08,30,00,31,4.80
2015,08,30,00,32,3.20
2015,08,30,00,33,3.20
2015,08,30,00,34,3.20
2015,08,30,00,35,4.80
2015,08,30,00,36,3.20
2015,08,30,00,37,3.20
2015,08,30,00,38,1.60
2015,08,30,00,39,1.60
2015,08,30,00,40,1.60
2015,08,30,00,43,1.60
2015,08,30,00,44,1.60
2015,08,30,00,45,1.60
2015,08,30,00,46,1.60
2015,08,30,00,47,1.60
2015,08,30,00,48,4.80
2015,08,30,00,49,1.60
2015,08,30,00,50,1.60
2015,08,30,00,51,4.80
2015,08,30,00,52,9.60
2015,08,30,00,53,6.40
2015,08,30,00,54,4.80
2015,08,30,00,55,3.20
2015,08,30,00,56,8.10
2015,08,30,00,57,3.20
2015,08,30,00,58,3.20
2015,08,30,00,59,3.20
2015,08,30,01,00,1.60
2015,08,30,01,01,1.60
2015,08,30,01,02,3.20
2015,08,30,01,03,1.60
2015,08,30,01,04,1.60
2015,08,30,01,05,1.60
2015,08,30,01,06,3.20
2015,08,30,01,07,1.60
2015,08,30,01,10,1.60
2015,08,30,01,11,1.60
2015,08,30,01,13,1.60
2015,08,30,01,14,3.20
2015,08,30,01,15,8.10
2015,08,30,01,16,1.60
2015,08,30,01,17,3.20
2015,08,30,01,18,9.60
2015,08,30,01,19,11.30
2015,08,30,01,20,9.60
2015,08,30,01,21,9.60
2015,08,30,01,22,1.60
2015,08,30,01,23,1.60
2015,08,30,01,24,6.40
2015,08,30,01,25,4.80
2015,08,30,01,26,6.40
2015,08,30,01,27,3.20
2015,08,30,01,28,3.20
2015,08,30,01,29,1.60
2015,08,30,01,30,9.60
2015,08,30,01,31,9.60
2015,08,30,01,32,8.10
2015,08,30,01,33,6.40
2015,08,30,01,34,11.30
2015,08,30,01,35,9.60
2015,08,30,01,36,3.20
2015,08,30,01,39,1.60
2015,08,30,01,41,1.60
2015,08,30,01,42,3.20
2015,08,30,01,43,6.40
2015,08,30,01,44,6.40
2015,08,30,01,45,6.40
2015,08,30,01,46,1.60
2015,08,30,01,47,1.60
2015,08,30,01,49,3.20
2015,08,30,01,50,3.20
2015,08,30,01,51,4.80
2015,08,30,01,52,3.20
2015,08,30,01,54,1.60
2015,08,30,01,55,3.20
2015,08,30,01,56,3.20
2015,08,30,01,57,3.20
2015,08,30,01,58,1.60
2015,08,30,01,59,1.60
2015,08,30,02,02,1.60
2015,08,30,02,04,1.60
2015,08,30,02,05,3.20
2015,08,30,02,06,1.60
2015,08,30,02,07,3.20
2015,08,30,02,08,1.60
2015,08,30,02,10,1.60
2015,08,30,02,13,1.60
2015,08,30,02,14,1.60
2015,08,30,02,17,3.20
2015,08,30,02,18,1.60
2015,08,30,02,19,1.60
2015,08,30,02,20,1.60
2015,08,30,02,23,1.60
2015,08,30,02,25,3.20
2015,08,30,02,26,3.20
2015,08,30,02,27,3.20
2015,08,30,02,28,6.40
2015,08,30,02,29,3.20
2015,08,30,02,30,3.20
2015,08,30,02,31,3.20
2015,08,30,02,32,3.20
2015,08,30,02,33,6.40
2015,08,30,02,34,4.80
2015,08,30,02,35,3.20
2015,08,30,02,36,4.80
2015,08,30,02,37,4.80
2015,08,30,02,38,1.60
2015,08,30,02,41,1.60
2015,08,30,02,42,1.60
2015,08,30,02,43,3.20
2015,08,30,02,44,3.20
2015,08,30,02,45,1.60
2015,08,30,02,46,3.20
2015,08,30,02,47,3.20
2015,08,30,02,48,1.60
2015,08,30,02,49,1.60
2015,08,30,02,50,1.60
2015,08,30,02,51,1.60
2015,08,30,02,52,1.60
2015,08,30,02,53,1.60
2015,08,30,02,54,1.60
2015,08,30,03,05,3.20
2015,08,30,03,06,1.60
2015,08,30,03,07,1.60
2015,08,30,03,08,1.60
2015,08,30,03,09,1.60
2015,08,30,03,10,1.60
2015,08,30,03,14,1.60
2015,08,30,03,27,3.20
2015,08,30,03,28,3.20
2015,08,30,03,29,1.60
2015,08,30,03,32,3.20
2015,08,30,03,33,3.20
2015,08,30,03,34,1.60
2015,08,30,03,35,3.20
2015,08,30,03,36,3.20
2015,08,30,03,37,3.20
2015,08,30,03,46,3.20
2015,08,30,03,47,1.60
2015,08,30,03,48,4.80
2015,08,30,03,50,3.20
2015,08,30,03,51,3.20
2015,08,30,03,52,3.20
2015,08,30,03,53,3.20
2015,08,30,03,54,3.20
2015,08,30,03,55,1.60
2015,08,30,03,56,3.20
2015,08,30,03,57,1.60
2015,08,30,03,58,1.60
2015,08,30,03,59,1.60
2015,08,30,04,14,3.20
2015,08,30,04,15,3.20
2015,08,30,04,16,3.20
2015,08,30,04,17,3.20
2015,08,30,04,18,1.60
2015,08,30,04,19,1.60
2015,08,30,04,33,1.60
2015,08,30,04,34,1.60
2015,08,30,04,41,3.20
2015,08,30,04,42,4.80
2015,08,30,04,43,4.80
2015,08,30,04,44,3.20
2015,08,30,04,45,3.20
2015,08,30,04,46,1.60
2015,08,30,04,48,1.60
2015,08,30,04,49,3.20
2015,08,30,04,51,3.20
2015,08,30,04,52,3.20
2015,08,30,04,53,1.60
2015,08,30,04,54,1.60
2015,08,30,04,57,1.60
2015,08,30,04,58,1.60
2015,08,30,05,03,1.60
2015,08,30,05,04,1.60
2015,08,30,05,10,1.60
2015,08,30,05,11,1.60
2015,08,30,05,12,1.60
2015,08,30,05,13,3.20
2015,08,30,05,14,3.20
2015,08,30,05,15,1.60
2015,08,30,05,16,1.60
2015,08,30,05,18,1.60
2015,08,30,05,19,1.60
2015,08,30,05,30,1.60
2015,08,30,05,31,1.60
2015,08,30,05,32,1.60
2015,08,30,05,52,1.60
2015,08,30,05,53,1.60
2015,08,30,05,54,1.60
2015,08,30,06,04,1.60
2015,08,30,06,05,3.20
2015,08,30,06,06,1.60
2015,08,30,06,25,1.60
2015,08,30,06,29,1.60
2015,08,30,06,30,3.20
2015,08,30,06,31,3.20
2015,08,30,06,32,3.20
2015,08,30,06,33,3.20
2015,08,30,06,34,4.80
2015,08,30,06,35,1.60
2015,08,30,06,58,3.20
2015,08,30,06,59,3.20
2015,08,30,07,02,1.60
2015,08,30,07,11,1.60
2015,08,30,07,12,1.60
2015,08,30,07,13,1.60
2015,08,30,07,14,3.20
2015,08,30,07,15,3.20
2015,08,30,07,16,3.20
2015,08,30,07,17,3.20
2015,08,30,07,18,1.60
2015,08,30,07,45,1.60
2015,08,30,07,46,1.60
2015,08,30,07,48,1.60
2015,08,30,07,49,1.60
2015,08,30,07,50,1.60
2015,08,30,07,51,1.60
2015,08,30,07,53,1.60
2015,08,30,08,26,1.60
2015,08,30,08,27,1.60
2015,08,30,08,33,1.60
2015,08,30,08,34,1.60
2015,08,30,08,35,1.60
2015,08,30,08,36,1.60
2015,08,30,08,37,3.20
2015,08,30,08,38,4.80
2015,08,30,08,39,3.20
2015,08,30,08,40,1.60
2015,08,30,08,41,3.20
2015,08,30,08,42,1.60
2015,08,30,08,45,1.60
2015,08,30,08,46,1.60
2015,08,30,08,47,1.60
2015,08,30,08,48,1.60
2015,08,30,08,49,1.60
2015,08,30,08,50,1.60
2015,08,30,08,51,3.20
2015,08,30,08,52,3.20
2015,08,30,08,53,3.20
2015,08,30,08,54,3.20
2015,08,30,08,55,6.40
2015,08,30,08,56,3.20
2015,08,30,08,57,4.80
2015,08,30,08,58,3.20
2015,08,30,08,59,3.20
2015,08,30,09,00,3.20
2015,08,30,09,01,6.40
2015,08,30,09,02,4.80
2015,08,30,09,03,6.40
2015,08,30,09,04,6.40
2015,08,30,09,05,4.80
2015,08,30,09,06,4.80
2015,08,30,09,07,6.40
2015,08,30,09,08,6.40
2015,08,30,09,09,6.40
2015,08,30,09,10,8.10
2015,08,30,09,11,8.10
2015,08,30,09,12,3.20
2015,08,30,09,13,4.80
2015,08,30,09,14,4.80
2015,08,30,09,15,4.80
2015,08,30,09,16,3.20
2015,08,30,09,17,3.20
2015,08,30,09,18,3.20
2015,08,30,09,19,1.60
2015,08,30,09,20,3.20
2015,08,30,09,21,3.20
2015,08,30,09,22,4.80
2015,08,30,09,23,6.40
2015,08,30,09,24,6.40
2015,08,30,09,25,4.80
2015,08,30,09,26,4.80
2015,08,30,09,27,4.80
2015,08,30,09,28,8.10
2015,08,30,09,29,3.20
2015,08,30,09,30,4.80
2015,08,30,09,31,4.80
2015,08,30,09,32,3.20
2015,08,30,09,33,3.20
2015,08,30,09,34,4.80
2015,08,30,09,35,6.40
2015,08,30,09,36,6.40
2015,08,30,09,37,6.40
2015,08,30,09,38,4.80
2015,08,30,09,39,9.60
2015,08,30,09,40,4.80
2015,08,30,09,41,4.80
2015,08,30,09,42,4.80
2015,08,30,09,43,1.60
2015,08,30,09,44,4.80
2015,08,30,09,45,3.20
2015,08,30,09,46,3.20
2015,08,30,09,47,4.80
2015,08,30,09,48,4.80
2015,08,30,09,49,4.80
2015,08,30,09,50,4.80
2015,08,30,09,51,1.60
2015,08,30,09,52,3.20
2015,08,30,09,53,3.20
2015,08,30,09,54,1.60
2015,08,30,09,57,4.80
2015,08,30,09,58,4.80
2015,08,30,09,59,6.40
2015,08,30,10,00,4.80
2015,08,30,10,01,4.80
2015,08,30,10,02,3.20
2015,08,30,10,03,3.20
2015,08,30,10,04,6.40
2015,08,30,10,05,6.40
2015,08,30,10,06,3.20
2015,08,30,10,07,3.20
2015,08,30,10,08,9.60
2015,08,30,10,09,6.40
2015,08,30,10,10,3.20
2015,08,30,10,11,6.40
2015,08,30,10,12,6.40
2015,08,30,10,13,6.40
2015,08,30,10,14,8.10
2015,08,30,10,15,8.10
2015,08,30,10,16,8.10
2015,08,30,10,17,4.80
2015,08,30,10,18,3.20
2015,08,30,10,19,4.80
2015,08,30,10,20,4.80
2015,08,30,10,21,3.20
2015,08,30,10,22,1.60
2015,08,30,10,23,4.80
2015,08,30,10,24,1.60
2015,08,30,10,25,4.80
2015,08,30,10,26,8.10
2015,08,30,10,27,8.10
2015,08,30,10,28,8.10
2015,08,30,10,29,8.10
2015,08,30,10,30,11.30
2015,08,30,10,31,6.40
2015,08,30,10,32,4.80
2015,08,30,10,33,4.80
2015,08,30,10,34,8.10
2015,08,30,10,35,3.20
2015,08,30,10,36,6.40
2015,08,30,10,37,9.60
2015,08,30,10,38,6.40
2015,08,30,10,39,3.20
2015,08,30,10,40,9.60
2015,08,30,10,41,3.20
2015,08,30,10,42,14.50
2015,08,30,10,43,6.40
2015,08,30,10,44,4.80
2015,08,30,10,45,4.80
2015,08,30,10,46,11.30
2015,08,30,10,47,12.90
2015,08,30,10,48,12.90
2015,08,30,10,49,9.60
2015,08,30,10,50,8.10
2015,08,30,10,51,9.60
2015,08,30,10,52,11.30
2015,08,30,10,53,8.10
2015,08,30,10,54,12.90
2015,08,30,10,55,8.10
2015,08,30,10,56,9.60
2015,08,30,10,57,6.40
2015,08,30,10,58,9.60
2015,08,30,10,59,6.40
2015,08,30,11,00,8.10
2015,08,30,11,01,4.80
2015,08,30,11,02,4.80
2015,08,30,11,03,6.40
2015,08,30,11,04,6.40
2015,08,30,11,05,6.40
2015,08,30,11,06,6.40
2015,08,30,11,07,4.80
2015,08,30,11,08,1.60
2015,08,30,11,09,6.40
2015,08,30,11,10,14.50
2015,08,30,11,11,11.30
2015,08,30,11,12,8.10
2015,08,30,11,13,11.30
2015,08,30,11,14,11.30
2015,08,30,11,15,8.10
2015,08,30,11,16,8.10
2015,08,30,11,17,8.10
2015,08,30,11,18,8.10
2015,08,30,11,19,4.80
2015,08,30,11,20,6.40
2015,08,30,11,21,1.60
2015,08,30,11,22,4.80
2015,08,30,11,23,4.80
2015,08,30,11,24,4.80
2015,08,30,11,25,4.80
2015,08,30,11,26,9.60
2015,08,30,11,27,3.20
2015,08,30,11,28,3.20
2015,08,30,11,29,8.10
2015,08,30,11,30,6.40
2015,08,30,11,31,8.10
2015,08,30,11,32,8.10
2015,08,30,11,33,6.40
2015,08,30,11,34,8.10
2015,08,30,11,35,12.90
2015,08,30,11,36,12.90
2015,08,30,11,37,9.60
2015,08,30,11,38,11.30
2015,08,30,11,39,3.20
2015,08,30,11,40,6.40
2015,08,30,11,41,6.40
2015,08,30,11,42,8.10
2015,08,30,11,43,6.40
2015,08,30,11,44,12.90
2015,08,30,11,45,14.50
2015,08,30,11,46,4.80
2015,08,30,11,47,19.30
2015,08,30,11,48,24.20
2015,08,30,11,49,20.90
2015,08,30,11,50,8.10
2015,08,30,11,51,11.30
2015,08,30,11,52,12.90
2015,08,30,11,53,6.40
2015,08,30,11,54,4.80
2015,08,30,11,55,16.10
2015,08,30,11,56,19.30
2015,08,30,11,57,12.90
2015,08,30,11,58,12.90
2015,08,30,11,59,9.60
2015,08,30,12,00,12.90
2015,08,30,12,01,19.30
2015,08,30,12,02,12.90
2015,08,30,12,03,9.60
2015,08,30,12,04,9.60
2015,08,30,12,05,4.80
2015,08,30,12,06,12.90
2015,08,30,12,07,3.20
2015,08,30,12,08,12.90
2015,08,30,12,09,12.90
2015,08,30,12,10,14.50
2015,08,30,12,11,6.40
2015,08,30,12,12,3.20
2015,08,30,12,13,12.90
2015,08,30,12,14,12.90
2015,08,30,12,15,16.10
2015,08,30,12,16,11.30
2015,08,30,12,17,6.40
2015,08,30,12,18,9.60
2015,08,30,12,19,11.30
2015,08,30,12,20,9.60
2015,08,30,12,21,12.90
2015,08,30,12,22,8.10
2015,08,30,12,23,9.60
2015,08,30,12,24,12.90
2015,08,30,12,25,14.50
2015,08,30,12,26,11.30
2015,08,30,12,27,14.50
2015,08,30,12,28,11.30
2015,08,30,12,29,4.80
2015,08,30,12,30,8.10
2015,08,30,12,31,9.60
2015,08,30,12,32,17.70
2015,08,30,12,33,20.90
2015,08,30,12,34,14.50
2015,08,30,12,35,14.50
2015,08,30,12,36,11.30
2015,08,30,12,37,14.50
2015,08,30,12,38,11.30
2015,08,30,12,39,12.90
2015,08,30,12,40,16.10
2015,08,30,12,41,14.50
2015,08,30,12,42,12.90
2015,08,30,12,43,12.90
2015,08,30,12,44,14.50
2015,08,30,12,45,11.30
2015,08,30,12,46,8.10
2015,08,30,12,47,9.60
2015,08,30,12,48,14.50
2015,08,30,12,49,14.50
2015,08,30,12,50,12.90
2015,08,30,12,51,11.30
2015,08,30,12,52,4.80
2015,08,30,12,53,16.10
2015,08,30,12,54,4.80
2015,08,30,12,55,12.90
2015,08,30,12,56,11.30
2015,08,30,12,57,6.40
2015,08,30,12,58,14.50
2015,08,30,12,59,12.90
2015,08,30,13,00,12.90
2015,08,30,13,01,16.10
2015,08,30,13,02,12.90
2015,08,30,13,03,6.40
2015,08,30,13,04,16.10
2015,08,30,13,05,6.40
2015,08,30,13,06,8.10
2015,08,30,13,07,11.30
2015,08,30,13,08,8.10
2015,08,30,13,09,11.30
2015,08,30,13,10,11.30
2015,08,30,13,11,11.30
2015,08,30,13,12,12.90
2015,08,30,13,13,4.80
2015,08,30,13,14,6.40
2015,08,30,13,15,11.30
2015,08,30,13,16,11.30
2015,08,30,13,17,9.60
2015,08,30,13,18,11.30
2015,08,30,13,19,9.60
2015,08,30,13,20,9.60
2015,08,30,13,21,9.60
2015,08,30,13,22,14.50
2015,08,30,13,23,9.60
2015,08,30,13,24,17.70
2015,08,30,13,25,12.90
2015,08,30,13,26,14.50
2015,08,30,13,27,12.90
2015,08,30,13,28,14.50
2015,08,30,13,29,20.90
2015,08,30,13,30,19.30
2015,08,30,13,31,16.10
2015,08,30,13,32,9.60
2015,08,30,13,33,11.30
2015,08,30,13,34,11.30
2015,08,30,13,35,17.70
2015,08,30,13,36,19.30
2015,08,30,13,37,20.90
2015,08,30,13,38,11.30
2015,08,30,13,39,9.60
2015,08,30,13,40,19.30
2015,08,30,13,41,17.70
2015,08,30,13,42,9.60
2015,08,30,13,43,14.50
2015,08,30,13,44,12.90
2015,08,30,13,45,20.90
2015,08,30,13,46,19.30
2015,08,30,13,47,22.50
2015,08,30,13,48,29.00
2015,08,30,13,49,22.50
2015,08,30,13,50,17.70
2015,08,30,13,51,16.10
2015,08,30,13,52,16.10
2015,08,30,13,53,8.10
2015,08,30,13,54,14.50
2015,08,30,13,55,17.70
2015,08,30,13,56,24.20
2015,08,30,13,57,25.70
2015,08,30,13,58,22.50
2015,08,30,13,59,22.50
2015,08,30,14,00,12.90
2015,08,30,14,01,12.90
2015,08,30,14,02,12.90
2015,08,30,14,03,16.10
2015,08,30,14,04,19.30
2015,08,30,14,05,8.10
2015,08,30,14,06,12.90
2015,08,30,14,07,19.30
2015,08,30,14,08,17.70
2015,08,30,14,09,16.10
2015,08,30,14,10,19.30
2015,08,30,14,11,25.70
2015,08,30,14,12,17.70
2015,08,30,14,13,14.50
2015,08,30,14,14,19.30
2015,08,30,14,15,20.90
2015,08,30,14,16,19.30
2015,08,30,14,17,19.30
2015,08,30,14,18,14.50
2015,08,30,14,19,14.50
2015,08,30,14,20,22.50
2015,08,30,14,21,16.10
2015,08,30,14,22,22.50
2015,08,30,14,23,24.20
2015,08,30,14,24,19.30
2015,08,30,14,25,11.30
2015,08,30,14,26,16.10
2015,08,30,14,27,20.90
2015,08,30,14,28,6.40
2015,08,30,14,29,14.50
2015,08,30,14,30,14.50
2015,08,30,14,31,9.60
2015,08,30,14,32,12.90
2015,08,30,14,33,11.30
2015,08,30,14,34,3.20
2015,08,30,14,35,3.20
2015,08,30,14,36,6.40
2015,08,30,14,37,12.90
2015,08,30,14,38,24.20
2015,08,30,14,39,11.30
2015,08,30,14,40,16.10
2015,08,30,14,41,8.10
2015,08,30,14,42,8.10
2015,08,30,14,43,11.30
2015,08,30,14,44,17.70
2015,08,30,14,45,17.70
2015,08,30,14,46,16.10
2015,08,30,14,47,4.80
2015,08,30,14,48,8.10
2015,08,30,14,49,6.40
2015,08,30,14,50,9.60
2015,08,30,14,51,11.30
2015,08,30,14,52,12.90
2015,08,30,14,53,14.50
2015,08,30,14,54,11.30
2015,08,30,14,55,12.90
2015,08,30,14,56,12.90
2015,08,30,14,57,14.50
2015,08,30,14,58,14.50
2015,08,30,14,59,24.20
2015,08,30,15,00,24.20
2015,08,30,15,01,12.90
2015,08,30,15,02,8.10
2015,08,30,15,03,8.10
2015,08,30,15,04,19.30
2015,08,30,15,05,19.30
2015,08,30,15,06,14.50
2015,08,30,15,07,19.30
2015,08,30,15,08,24.20
2015,08,30,15,09,22.50
2015,08,30,15,10,17.70
2015,08,30,15,11,17.70
2015,08,30,15,12,6.40
2015,08,30,15,13,4.80
2015,08,30,15,14,11.30
2015,08,30,15,15,11.30
2015,08,30,15,16,9.60
2015,08,30,15,17,11.30
2015,08,30,15,18,12.90
2015,08,30,15,19,8.10
2015,08,30,15,20,20.90
2015,08,30,15,21,19.30
2015,08,30,15,22,11.30
2015,08,30,15,23,8.10
2015,08,30,15,24,6.40
2015,08,30,15,25,6.40
2015,08,30,15,26,12.90
2015,08,30,15,27,14.50
2015,08,30,15,28,3.20
2015,08,30,15,29,9.60
2015,08,30,15,30,9.60
2015,08,30,15,31,16.10
2015,08,30,15,32,14.50
2015,08,30,15,33,4.80
2015,08,30,15,34,17.70
2015,08,30,15,35,12.90
2015,08,30,15,36,9.60
2015,08,30,15,37,14.50
2015,08,30,15,38,11.30
2015,08,30,15,39,14.50
2015,08,30,15,40,9.60
2015,08,30,15,41,11.30
2015,08,30,15,42,12.90
2015,08,30,15,43,11.30
2015,08,30,15,44,16.10
2015,08,30,15,45,9.60
2015,08,30,15,46,17.70
2015,08,30,15,47,16.10
2015,08,30,15,48,16.10
2015,08,30,15,49,27.40
2015,08,30,15,50,17.70
2015,08,30,15,51,14.50
2015,08,30,15,52,20.90
2015,08,30,15,53,12.90
2015,08,30,15,54,22.50
2015,08,30,15,55,11.30
2015,08,30,15,56,12.90
2015,08,30,15,57,6.40
2015,08,30,15,58,12.90
2015,08,30,15,59,6.40
2015,08,30,16,00,6.40
2015,08,30,16,01,8.10
2015,08,30,16,02,14.50
2015,08,30,16,03,8.10
2015,08,30,16,04,20.90
2015,08,30,16,05,14.50
2015,08,30,16,06,17.70
2015,08,30,16,07,16.10
2015,08,30,16,08,14.50
2015,08,30,16,09,9.60
2015,08,30,16,10,9.60
2015,08,30,16,11,6.40
2015,08,30,16,12,22.50
2015,08,30,16,13,17.70
2015,08,30,16,14,17.70
2015,08,30,16,15,19.30
2015,08,30,16,16,11.30
2015,08,30,16,17,24.20
2015,08,30,16,18,16.10
2015,08,30,16,19,19.30
2015,08,30,16,20,19.30
2015,08,30,16,21,16.10
2015,08,30,16,22,16.10
2015,08,30,16,23,22.50
2015,08,30,16,24,11.30
2015,08,30,16,25,16.10
2015,08,30,16,26,19.30
2015,08,30,16,27,8.10
2015,08,30,16,28,9.60
2015,08,30,16,29,9.60
2015,08,30,16,30,19.30
2015,08,30,16,31,12.90
2015,08,30,16,32,9.60
2015,08,30,16,33,1.60
2015,08,30,16,34,3.20
2015,08,30,16,35,3.20
2015,08,30,16,36,16.10
2015,08,30,16,37,9.60
2015,08,30,16,38,9.60
2015,08,30,16,39,12.90
2015,08,30,16,40,8.10
2015,08,30,16,41,8.10
2015,08,30,16,42,9.60
2015,08,30,16,43,14.50
2015,08,30,16,44,14.50
2015,08,30,16,45,11.30
2015,08,30,16,46,11.30
2015,08,30,16,47,16.10
2015,08,30,16,48,11.30
2015,08,30,16,49,12.90
2015,08,30,16,50,14.50
2015,08,30,16,51,22.50
2015,08,30,16,52,12.90
2015,08,30,16,53,19.30
2015,08,30,16,54,14.50
2015,08,30,16,55,14.50
2015,08,30,16,56,24.20
2015,08,30,16,57,14.50
2015,08,30,16,58,17.70
2015,08,30,16,59,17.70
2015,08,30,17,00,16.10
2015,08,30,17,01,12.90
2015,08,30,17,02,6.40
2015,08,30,17,03,14.50
2015,08,30,17,04,11.30
2015,08,30,17,05,12.90
2015,08,30,17,06,16.10
2015,08,30,17,07,9.60
2015,08,30,17,08,24.20
2015,08,30,17,09,16.10
2015,08,30,17,10,11.30
2015,08,30,17,11,20.90
2015,08,30,17,12,11.30
2015,08,30,17,13,9.60
2015,08,30,17,14,12.90
2015,08,30,17,15,14.50
2015,08,30,17,16,9.60
2015,08,30,17,17,20.90
2015,08,30,17,18,14.50
2015,08,30,17,19,11.30
2015,08,30,17,20,11.30
2015,08,30,17,21,6.40
2015,08,30,17,22,17.70
2015,08,30,17,23,14.50
2015,08,30,17,24,14.50
2015,08,30,17,25,12.90
2015,08,30,17,26,20.90
2015,08,30,17,27,14.50
2015,08,30,17,28,14.50
2015,08,30,17,29,11.30
2015,08,30,17,30,14.50
2015,08,30,17,31,20.90
2015,08,30,17,32,11.30
2015,08,30,17,33,16.10
2015,08,30,17,34,20.90
2015,08,30,17,35,24.20
2015,08,30,17,36,14.50
2015,08,30,17,37,16.10
2015,08,30,17,38,12.90
2015,08,30,17,39,8.10
2015,08,30,17,40,12.90
2015,08,30,17,41,9.60
2015,08,30,17,42,9.60
2015,08,30,17,43,6.40
2015,08,30,17,44,9.60
2015,08,30,17,45,9.60
2015,08,30,17,46,3.20
2015,08,30,17,47,4.80
2015,08,30,17,48,4.80
2015,08,30,17,49,12.90
2015,08,30,17,50,16.10
2015,08,30,17,51,16.10
2015,08,30,17,52,8.10
2015,08,30,17,53,11.30
2015,08,30,17,54,3.20
2015,08,30,17,55,6.40
2015,08,30,17,56,9.60
2015,08,30,17,57,17.70
2015,08,30,17,58,11.30
2015,08,30,17,59,14.50
2015,08,30,18,00,11.30
2015,08,30,18,01,19.30
2015,08,30,18,02,9.60
2015,08,30,18,03,12.90
2015,08,30,18,04,12.90
2015,08,30,18,05,12.90
2015,08,30,18,06,11.30
2015,08,30,18,07,16.10
2015,08,30,18,08,16.10
2015,08,30,18,09,17.70
2015,08,30,18,10,17.70
2015,08,30,18,11,8.10
2015,08,30,18,12,11.30
2015,08,30,18,13,14.50
2015,08,30,18,14,12.90
2015,08,30,18,15,19.30
2015,08,30,18,16,12.90
2015,08,30,18,17,14.50
2015,08,30,18,18,14.50
2015,08,30,18,19,14.50
2015,08,30,18,20,11.30
2015,08,30,18,21,9.60
2015,08,30,18,22,27.40
2015,08,30,18,23,12.90
2015,08,30,18,24,11.30
2015,08,30,18,25,8.10
2015,08,30,18,26,17.70
2015,08,30,18,27,49.90
2015,08,30,18,28,22.50
2015,08,30,18,29,14.50
2015,08,30,18,30,25.70
2015,08,30,18,31,19.30
2015,08,30,18,32,14.50
2015,08,30,18,33,9.60
2015,08,30,18,34,20.90
2015,08,30,18,35,12.90
2015,08,30,18,36,22.50
2015,08,30,18,37,17.70
2015,08,30,18,38,12.90
2015,08,30,18,39,19.30
2015,08,30,18,40,22.50
2015,08,30,18,41,17.70
2015,08,30,18,42,19.30
2015,08,30,18,43,33.80
2015,08,30,18,44,17.70
2015,08,30,18,45,14.50
2015,08,30,18,46,27.40
2015,08,30,18,47,27.40
2015,08,30,18,48,19.30
2015,08,30,18,49,6.40
2015,08,30,18,50,9.60
2015,08,30,18,51,24.20
2015,08,30,18,52,9.60
2015,08,30,18,53,19.30
2015,08,30,18,54,14.50
2015,08,30,18,55,11.30
2015,08,30,18,56,14.50
2015,08,30,18,57,12.90
2015,08,30,18,58,11.30
2015,08,30,18,59,9.60
2015,08,30,19,00,16.10
2015,08,30,19,01,17.70
2015,08,30,19,02,9.60
2015,08,30,19,03,9.60
2015,08,30,19,04,14.50
2015,08,30,19,05,22.50
2015,08,30,19,06,8.10
2015,08,30,19,07,14.50
2015,08,30,19,08,19.30
2015,08,30,19,09,22.50
2015,08,30,19,10,19.30
2015,08,30,19,11,6.40
2015,08,30,19,12,9.60
2015,08,30,19,13,11.30
2015,08,30,19,14,14.50
2015,08,30,19,15,24.20
2015,08,30,19,16,19.30
2015,08,30,19,17,20.90
2015,08,30,19,18,22.50
2015,08,30,19,19,24.20
2015,08,30,19,20,38.60
2015,08,30,19,21,32.20
2015,08,30,19,22,19.30
2015,08,30,19,23,24.20
2015,08,30,19,24,11.30
2015,08,30,19,25,16.10
2015,08,30,19,26,17.70
2015,08,30,19,27,25.70
2015,08,30,19,28,12.90
2015,08,30,19,29,29.00
2015,08,30,19,30,20.90
2015,08,30,19,31,16.10
2015,08,30,19,32,19.30
2015,08,30,19,33,16.10
2015,08,30,19,34,32.20
2015,08,30,19,35,30.60
2015,08,30,19,36,20.90
2015,08,30,19,37,27.40
2015,08,30,19,38,43.50
2015,08,30,19,39,12.90
2015,08,30,19,40,19.30
2015,08,30,19,41,16.10
2015,08,30,19,42,27.40
2015,08,30,19,43,30.60
2015,08,30,19,44,33.80
2015,08,30,19,45,25.70
2015,08,30,19,46,25.70
2015,08,30,19,47,17.70
2015,08,30,19,48,22.50
2015,08,30,19,49,29.00
2015,08,30,19,50,19.30
2015,08,30,19,51,16.10
2015,08,30,19,52,11.30
2015,08,30,19,53,16.10
2015,08,30,19,54,24.20
2015,08,30,19,55,24.20
2015,08,30,19,56,12.90
2015,08,30,19,57,24.20
2015,08,30,19,58,20.90
2015,08,30,19,59,14.50
2015,08,30,20,00,22.50
2015,08,30,20,01,22.50
2015,08,30,20,02,19.30
2015,08,30,20,03,11.30
2015,08,30,20,04,6.40
2015,08,30,20,05,11.30
2015,08,30,20,06,9.60
2015,08,30,20,07,12.90
2015,08,30,20,08,11.30
2015,08,30,20,09,11.30
2015,08,30,20,10,11.30
2015,08,30,20,11,8.10
2015,08,30,20,12,8.10
2015,08,30,20,13,14.50
2015,08,30,20,14,8.10
2015,08,30,20,15,20.90
2015,08,30,20,16,14.50
2015,08,30,20,17,16.10
2015,08,30,20,18,11.30
2015,08,30,20,19,16.10
2015,08,30,20,20,16.10
2015,08,30,20,21,11.30
2015,08,30,20,22,9.60
2015,08,30,20,23,11.30
2015,08,30,20,24,16.10
2015,08,30,20,25,14.50
2015,08,30,20,26,11.30
2015,08,30,20,27,9.60
2015,08,30,20,28,11.30
2015,08,30,20,29,14.50
2015,08,30,20,30,16.10
2015,08,30,20,31,16.10
2015,08,30,20,32,11.30
2015,08,30,20,33,14.50
2015,08,30,20,34,11.30
2015,08,30,20,35,11.30
2015,08,30,20,36,8.10
2015,08,30,20,37,14.50
2015,08,30,20,38,11.30
2015,08,30,20,39,9.60
2015,08,30,20,40,11.30
2015,08,30,20,41,9.60
2015,08,30,20,42,12.90
2015,08,30,20,43,11.30
2015,08,30,20,44,9.60
2015,08,30,20,45,9.60
2015,08,30,20,46,11.30
2015,08,30,20,47,9.60
2015,08,30,20,48,12.90
2015,08,30,20,49,9.60
2015,08,30,20,50,6.40
2015,08,30,20,51,12.90
2015,08,30,20,52,8.10
2015,08,30,20,53,6.40
2015,08,30,20,54,12.90
2015,08,30,20,55,14.50
2015,08,30,20,56,11.30
2015,08,30,20,57,6.40
2015,08,30,20,58,12.90
2015,08,30,20,59,3.20
2015,08,30,21,00,12.90
2015,08,30,21,01,11.30
2015,08,30,21,02,4.80
2015,08,30,21,03,8.10
2015,08,30,21,04,6.40
2015,08,30,21,05,4.80
2015,08,30,21,06,11.30
2015,08,30,21,07,6.40
2015,08,30,21,08,4.80
2015,08,30,21,09,12.90
2015,08,30,21,10,11.30
2015,08,30,21,11,14.50
2015,08,30,21,12,6.40
2015,08,30,21,13,11.30
2015,08,30,21,14,20.90
2015,08,30,21,15,14.50
2015,08,30,21,16,11.30
2015,08,30,21,17,9.60
2015,08,30,21,18,12.90
2015,08,30,21,19,12.90
2015,08,30,21,20,9.60
2015,08,30,21,21,12.90
2015,08,30,21,22,14.50
2015,08,30,21,23,8.10
2015,08,30,21,24,8.10
2015,08,30,21,25,14.50
2015,08,30,21,26,14.50
2015,08,30,21,27,9.60
2015,08,30,21,28,16.10
2015,08,30,21,29,12.90
2015,08,30,21,30,14.50
2015,08,30,21,31,19.30
2015,08,30,21,32,17.70
2015,08,30,21,33,9.60
2015,08,30,21,34,6.40
2015,08,30,21,35,11.30
2015,08,30,21,36,16.10
2015,08,30,21,37,17.70
2015,08,30,21,38,20.90
2015,08,30,21,39,9.60
2015,08,30,21,40,8.10
2015,08,30,21,41,19.30
2015,08,30,21,42,12.90
2015,08,30,21,43,11.30
2015,08,30,21,44,11.30
2015,08,30,21,45,17.70
2015,08,30,21,46,14.50
2015,08,30,21,47,19.30
2015,08,30,21,48,17.70
2015,08,30,21,49,14.50
2015,08,30,21,50,14.50
2015,08,30,21,51,9.60
2015,08,30,21,52,11.30
2015,08,30,21,53,4.80
2015,08,30,21,54,8.10
2015,08,30,21,55,20.90
2015,08,30,21,56,11.30
2015,08,30,21,57,20.90
2015,08,30,21,58,16.10
2015,08,30,21,59,12.90
2015,08,30,22,00,12.90
2015,08,30,22,01,12.90
2015,08,30,22,02,9.60
2015,08,30,22,03,17.70
2015,08,30,22,04,16.10
2015,08,30,22,05,16.10
2015,08,30,22,06,16.10
2015,08,30,22,07,12.90
2015,08,30,22,08,16.10
2015,08,30,22,09,6.40
2015,08,30,22,10,22.50
2015,08,30,22,11,11.30
2015,08,30,22,12,6.40
2015,08,30,22,13,20.90
2015,08,30,22,14,14.50
2015,08,30,22,15,4.80
2015,08,30,22,16,19.30
2015,08,30,22,17,14.50
2015,08,30,22,18,14.50